{"data":{"norad_id":68662,"epoch":"2026-05-25T02:18:31.658400Z","epoch_age_seconds":63957,"freshness":"FRESH","line1":"1 68662U 26077A   26145.09619975  .00014203  00000+0  44172-3 0  9994","line2":"2 68662  97.2865  16.6124 0001754  97.3947 262.7495 15.33422797  6861","mean_motion":15.33422797,"eccentricity":0.0001754,"inclination_deg":97.2865,"raan_deg":16.6124,"arg_perigee_deg":97.3947,"mean_anomaly_deg":262.7495,"bstar":0.00044172,"rev_number":686,"period_min":93.90756435976,"perigee_km":464.40884269233,"apogee_km":466.80962887184,"semimajor_km":6843.7462357821,"source":"CELESTRAK","updated_at":"2026-05-25T13:38:21.990898Z"}}